Location: Newark
(40.4333°N, 3.7000°W)
Time: 01:53:40
(UTC+00:00)

Hubble Space Telescope - Visible Passes

Search period start: 26 March 2019 00:00
Search period end: 05 April 2019 00:00
Orbit: 537 x 540 km, 28.5° (Epoch: 25 March)

Date Brightness Start Highest point End Pass type
(mag) Time Alt. Az. Time Alt. Az. Time Alt. Az.
26 Mar 2.8 19:55:46 10° SSW 19:57:53 14° S 19:58:03 14° SSE visible
27 Mar 2.8 19:44:58 10° SSW 19:47:16 15° S 19:48:18 13° SSE visible
28 Mar 2.8 19:34:14 10° SSW 19:36:39 15° S 19:38:30 12° SSE visible
29 Mar 2.8 19:23:35 10° SW 19:26:03 15° S 19:28:32 10° SE visible
30 Mar 2.9 19:12:59 10° SW 19:15:27 15° S 19:17:56 10° SE visible
31 Mar 3.0 19:02:26 10° SW 19:04:51 15° S 19:07:16 10° SSE visible
